GFSSGP_700_spd_000.txt.gz
Wind_Speed
4 5 12 12 5 8 17 11 7 7 3 4 3 6 4 3 4 4 3 6 5 4 2 4 6 6 7 8 10 8 9 12 7 11 9 9 9 14 20 28 23 19 14 17 13 17 17 16 13
4 10 13 6 8 15 13 9 6 7 4 2 2 3 8 11 9 4 4 1 5 4 3 3 4 7 8 11 14 16 19 17 15 11 13 11 15 18 24 23 24 26 27 11 20 21 18 15 15
12 14 11 5 11 5 7 10 7 6 4 3 6 9 11 3 4 4 3 2 2 2 4 6 7 10 11 11 11 12 15 14 13 11 13 11 13 18 18 19 20 21 16 18 23 32 11 14 15
19 5 5 7 8 11 6 5 4 1 1 6 3 11 12 8 6 5 6 1 3 4 7 10 12 13 16 17 19 18 16 17 18 15 15 18 12 16 16 20 19 20 20 19 24 29 34 14 16
12 4 13 3 12 9 6 3 1 3 3 4 5 9 6 5 3 1 2 5 7 9 12 15 17 19 20 18 19 20 20 19 18 18 17 18 14 17 17 16 19 21 19 19 24 36 40 19 15
6 5 15 9 7 5 5 4 3 2 3 4 10 4 4 3 3 4 4 6 10 11 13 16 17 17 18 18 18 18 19 20 21 21 20 20 18 15 20 22 19 22 23 24 29 30 23 22 23
9 11 3 8 5 2 4 3 3 3 3 4 9 6 10 15 4 5 7 10 13 15 17 18 16 16 16 17 19 20 21 23 24 25 23 21 22 19 19 21 24 25 27 24 28 27 24 26 27
5 7 6 4 5 5 3 3 1 2 6 8 6 8 8 10 5 10 12 14 15 16 17 16 19 22 21 20 20 22 22 23 22 23 22 20 20 21 21 19 19 21 23 25 26 29 30 29 32
5 6 9 6 6 5 3 4 5 10 4 8 9 5 7 10 14 14 14 15 16 14 14 16 17 19 20 25 26 23 23 23 19 19 20 19 17 15 15 16 15 14 18 23 26 29 30 32 34
9 7 9 2 3 6 5 3 7 6 8 9 12 17 19 17 15 13 9 8 16 15 17 17 17 20 22 26 26 25 19 16 15 14 15 15 15 14 14 15 17 16 15 18 26 30 27 28 36
6 12 6 2 7 3 6 7 6 6 6 3 6 11 18 13 9 8 8 10 17 20 20 18 21 24 25 25 23 22 17 17 15 16 15 14 13 15 17 17 17 18 18 17 18 14 23 30 42
3 5 3 3 4 2 5 8 6 6 10 15 16 8 13 9 10 11 11 17 20 21 23 21 23 24 22 17 19 20 20 19 19 17 17 17 17 18 20 20 20 21 23 23 21 19 21 28 28
5 3 3 5 6 5 7 6 11 11 9 15 14 16 15 14 13 16 18 20 20 21 24 24 22 19 14 18 18 20 22 22 23 22 21 22 23 24 25 25 26 27 27 27 27 27 28 25 24
3 1 2 3 4 9 13 13 12 10 11 16 11 12 13 17 15 17 21 19 22 22 24 25 20 16 20 21 20 21 24 25 26 26 25 25 25 26 26 28 29 27 27 26 25 26 27 26 24
2 5 8 4 5 11 13 19 8 8 15 16 13 14 13 14 17 18 19 21 22 24 24 21 19 20 23 25 25 25 25 27 29 30 31 30 30 30 32 33 34 33 31 30 29 27 26 29 26
4 4 11 6 14 9 11 14 4 10 13 18 15 15 19 20 17 19 22 21 23 24 25 23 25 27 27 30 29 31 31 31 34 36 34 35 35 36 36 35 33 33 33 32 30 30 29 28 31
3 11 12 12 9 9 10 20 15 14 19 21 19 16 17 20 21 23 22 24 24 24 26 26 27 31 32 32 32 34 35 35 38 38 39 37 37 37 38 38 37 35 35 37 36 36 35 31 31
13 12 13 14 12 18 17 17 16 18 16 17 17 16 16 16 15 22 25 30 27 25 27 29 32 34 33 33 32 35 36 36 40 40 42 38 37 36 35 37 36 35 37 38 37 38 38 38 36
13 15 17 15 15 20 20 22 15 12 9 9 12 11 15 13 13 14 22 32 24 23 26 27 29 30 31 32 34 34 36 36 37 36 39 40 37 35 33 34 37 38 38 38 39 39 38 37 37
14 16 14 15 19 20 24 24 14 10 7 9 2 2 4 10 14 13 20 22 21 24 24 26 30 36 38 34 33 32 32 34 36 36 39 40 35 37 39 36 37 37 39 40 40 40 39 35 34
14 7 16 20 22 10 16 14 11 7 6 10 1 4 8 16 15 15 20 24 28 28 29 32 35 36 38 36 28 34 36 32 34 37 36 35 31 35 34 38 38 38 40 39 37 36 35 37 35
12 16 21 20 18 17 16 10 6 7 7 4 2 4 13 14 18 21 23 27 29 32 35 34 34 34 35 38 39 32 38 40 35 35 34 28 25 29 33 36 34 34 39 40 39 37 36 38 40
15 20 23 23 19 15 4 7 10 6 7 5 3 10 17 21 22 23 23 25 30 30 32 30 29 31 32 32 36 39 34 38 36 36 37 32 34 40 45 46 47 41 37 42 43 42 40 41 43
18 23 20 4 4 4 7 3 16 10 4 5 8 9 16 24 26 25 21 24 25 27 32 32 36 34 34 34 34 38 41 36 41 42 44 46 48 49 50 53 54 42 40 42 44 45 48 48 46
15 18 8 5 2 4 13 13 19 22 14 9 12 18 22 25 18 18 25 24 24 32 27 31 38 43 43 41 39 40 41 42 41 45 49 50 53 51 48 48 54 43 42 42 46 48 51 51 48
13 9 4 4 4 12 25 8 10 6 17 19 19 24 18 12 12 25 24 23 25 25 30 32 35 36 39 41 44 48 45 47 48 48 52 55 48 51 55 58 51 42 47 48 48 52 53 49 46
8 6 7 8 15 4 8 14 22 9 7 10 19 18 14 23 24 24 26 23 24 28 33 38 45 34 35 38 41 43 46 50 54 55 58 52 49 50 55 56 49 47 46 49 50 51 50 47 45
9 10 5 4 3 5 11 21 18 14 19 27 24 19 22 24 30 27 28 28 26 36 39 53 45 45 40 39 41 43 45 50 53 57 57 53 54 56 52 52 46 45 47 47 48 48 47 45 43
8 12 10 12 13 5 6 9 24 35 21 14 25 32 33 29 30 31 26 27 36 41 52 51 50 43 42 40 42 44 44 43 47 52 54 56 54 52 47 43 43 43 45 46 47 46 43 42 41
7 9 13 14 13 23 26 31 11 13 9 39 36 31 36 33 30 22 25 33 44 56 54 50 50 49 49 47 46 46 42 39 41 46 51 50 45 43 43 40 41 44 47 47 48 44 42 39 39

GFSSGP_700_spd_003.txt.gz
Wind_Speed
2 0 8 11 6 2 11 5 7 6 1 11 5 3 6 7 10 3 6 7 7 6 6 6 6 6 8 9 9 11 12 15 13 9 11 10 10 12 16 17 18 23 31 19 26 24 18 15 16
5 10 15 12 4 3 19 16 12 6 8 10 5 7 3 10 11 3 7 8 10 9 5 4 3 5 7 10 13 14 14 16 17 15 12 11 10 10 13 16 17 18 19 26 17 19 26 16 17
17 15 13 5 4 10 14 12 10 10 8 4 2 6 3 6 13 2 13 10 8 5 3 3 7 10 12 15 17 19 19 21 21 18 14 10 10 11 13 12 14 16 16 18 12 14 33 22 12
14 8 3 6 12 12 13 13 13 10 10 7 3 6 2 7 8 6 9 7 3 4 7 10 13 16 17 19 20 23 22 20 19 16 16 15 13 13 15 14 13 15 16 14 13 12 18 24 22
6 5 5 6 12 11 11 6 4 11 9 3 5 3 5 14 4 4 5 3 7 9 11 14 16 17 19 20 19 19 20 19 19 20 18 19 20 18 18 18 17 19 17 16 14 15 20 25 25
9 12 15 5 13 7 2 8 8 8 3 3 9 10 9 9 2 1 3 8 6 9 13 15 17 19 20 19 18 18 18 19 20 21 21 21 21 20 20 22 19 19 18 18 18 19 20 23 26
9 14 21 7 7 3 5 3 4 10 6 4 4 6 6 5 6 6 6 10 15 16 15 16 19 20 20 21 20 20 20 19 19 21 21 19 19 19 20 19 18 17 19 19 21 21 22 20 20
7 12 2 14 8 7 9 3 5 5 5 6 7 3 5 8 5 7 12 16 20 20 21 22 23 23 21 21 19 20 21 20 21 21 20 17 17 16 15 17 18 17 16 15 17 21 23 23 19
13 8 17 12 13 10 8 5 2 8 4 9 12 16 15 8 7 12 10 13 22 24 18 19 25 25 25 27 27 24 23 24 21 18 18 17 16 15 14 13 14 14 14 16 17 20 23 22 19
9 11 10 6 6 5 9 1 10 13 2 11 10 13 16 15 13 11 13 9 19 25 20 15 17 20 23 29 28 25 22 20 17 20 18 17 16 14 13 14 17 18 16 15 15 17 18 12 10
6 11 5 5 6 12 10 4 3 6 3 2 1 5 13 22 14 9 2 10 18 26 23 17 17 20 24 24 20 17 16 15 18 20 20 18 19 21 21 21 21 21 20 18 18 18 15 15 18
5 4 4 4 5 2 3 6 12 11 6 15 13 17 23 26 16 9 12 16 21 23 22 14 19 23 22 18 17 20 17 20 20 21 22 21 21 21 23 23 22 21 23 25 23 19 16 16 16
4 5 9 7 13 11 7 5 2 12 8 10 8 12 13 16 14 13 15 16 20 21 23 20 21 22 20 16 19 21 21 21 22 23 24 26 26 26 25 25 25 26 25 25 24 22 20 20 17
3 4 1 6 10 11 12 15 16 5 6 11 13 17 11 11 11 13 16 17 18 20 23 22 22 20 18 19 20 23 24 25 27 27 27 29 29 29 30 30 30 29 29 29 28 25 23 21 22
9 7 7 8 9 11 17 7 4 8 9 12 19 21 20 16 15 16 18 19 19 20 22 20 21 20 20 23 24 26 26 28 30 30 32 34 33 35 36 36 35 33 32 31 30 29 28 27 24
14 9 8 11 11 10 17 12 12 11 15 19 24 24 22 19 17 20 21 24 24 24 25 24 23 22 23 27 30 31 29 29 32 33 32 35 35 35 37 37 36 37 37 35 32 32 33 31 29
7 12 10 12 3 11 13 21 15 7 12 22 24 22 17 15 17 17 20 24 29 32 30 27 26 26 26 30 30 31 33 33 36 37 31 32 34 34 35 35 34 36 37 37 35 35 35 35 34
14 14 16 9 10 13 17 23 18 9 13 16 17 9 8 9 13 16 13 20 28 33 28 25 25 24 26 27 30 35 35 34 36 37 37 30 28 30 32 34 33 35 37 38 36 36 36 37 38
8 12 16 13 16 20 21 20 12 12 14 14 13 12 17 19 20 18 20 21 26 29 24 25 26 26 29 31 30 28 30 28 28 29 33 38 35 30 28 33 38 38 37 35 35 36 38 39 40
13 13 12 18 20 15 16 18 15 15 18 16 6 1 4 7 10 11 11 16 22 22 23 25 26 28 29 27 30 31 30 30 31 31 33 35 36 35 34 32 34 35 35 37 36 35 35 37 36
13 11 18 23 24 6 15 13 5 15 18 15 9 8 10 15 17 22 22 22 23 25 32 30 30 27 32 34 33 32 34 35 31 33 34 36 36 32 30 32 32 35 39 41 40 37 33 33 32
20 14 18 19 20 15 23 7 18 17 14 15 10 11 14 15 19 25 27 28 25 37 34 28 30 29 34 36 37 37 33 33 35 34 34 37 39 38 35 35 35 36 37 43 45 45 45 37 33
15 19 23 17 14 17 14 7 7 7 16 9 6 8 13 19 24 26 29 25 31 35 33 34 36 42 39 40 35 35 37 34 33 35 37 40 41 39 34 40 41 40 37 36 42 46 44 39 39
15 21 15 2 2 2 12 11 7 15 11 6 11 10 13 17 20 24 28 30 23 30 30 33 36 41 42 45 41 40 41 40 42 41 39 38 42 44 47 46 43 40 42 53 57 44 52 46 41
12 20 9 5 2 4 18 14 8 24 9 8 10 14 18 24 27 30 31 26 23 27 28 28 32 37 38 46 40 39 41 43 42 41 45 43 44 46 47 49 53 54 55 58 51 58 54 40 39
11 12 5 2 1 10 22 3 8 18 8 12 18 20 19 27 20 25 23 27 31 33 33 37 34 41 45 48 38 37 39 45 48 48 47 50 51 51 53 55 59 59 58 63 56 49 41 42 42
8 9 10 6 9 2 7 8 20 10 14 27 20 16 20 26 26 24 28 26 29 32 36 37 40 49 52 46 37 34 38 42 42 44 50 54 54 55 56 61 58 57 58 52 46 42 42 40 43
7 9 5 3 2 3 6 18 11 17 26 17 16 34 36 35 27 32 33 37 32 40 35 37 50 50 49 49 48 48 45 43 40 42 48 51 52 55 59 54 51 46 47 44 39 38 40 42 44
5 10 10 10 8 3 3 6 13 34 17 21 27 34 33 28 29 24 24 27 32 34 45 53 48 48 50 53 53 48 46 42 41 39 43 47 48 46 44 42 42 44 40 37 37 39 40 42 42
1 13 19 17 8 20 23 24 21 13 33 31 35 21 33 28 31 31 32 36 42 48 57 51 49 52 50 52 54 53 49 41 38 35 37 41 36 36 38 42 40 35 36 37 38 40 41 39 37

GFSSGP_700_spd_006.txt.gz
Wind_Speed
2 3 8 10 7 12 9 12 12 5 3 4 3 4 6 12 10 4 9 7 7 8 7 7 5 5 1 3 3 5 9 11 10 11 13 9 6 8 10 10 12 14 16 19 18 18 24 32 30
6 10 13 7 6 16 16 13 15 13 10 6 8 9 4 8 13 8 8 13 12 9 8 5 4 4 7 9 10 11 14 14 15 14 14 12 7 7 8 10 12 15 16 17 14 14 19 32 24
17 16 8 11 22 17 14 9 10 11 5 2 7 8 11 12 10 7 15 14 12 7 3 1 6 9 11 12 14 15 16 17 16 15 15 11 7 7 8 8 10 12 13 15 14 14 17 31 32
15 11 14 17 20 15 11 7 5 6 2 1 8 5 8 9 9 9 10 9 8 3 2 5 7 9 11 13 15 15 16 17 18 18 17 12 11 11 11 12 13 12 13 14 13 15 13 20 28
10 11 13 9 14 13 12 11 10 8 5 4 8 7 5 8 4 5 4 2 2 4 5 6 9 13 16 16 17 16 16 18 17 19 18 18 17 15 15 14 17 14 14 14 15 13 16 15 17
15 13 10 11 11 7 6 7 6 8 7 5 8 8 7 6 2 5 3 3 4 6 10 12 14 16 17 18 20 21 22 22 22 21 21 21 19 17 16 17 18 17 16 14 12 13 16 18 18
16 15 11 14 13 10 9 4 1 7 4 6 9 7 4 7 9 11 9 9 11 12 13 15 14 14 15 17 18 19 22 23 22 22 22 21 20 19 18 16 15 14 13 15 13 10 12 16 18
12 13 7 13 10 14 6 3 2 6 10 6 10 8 6 5 7 11 10 12 14 15 16 15 14 15 17 17 18 21 21 20 18 17 16 16 15 14 14 13 12 11 11 13 12 10 11 13 16
7 12 15 15 12 11 5 5 2 8 7 6 9 7 7 6 8 12 11 14 18 17 14 18 20 19 20 23 24 23 18 16 15 13 17 16 14 13 13 13 13 12 12 10 10 12 14 15 11
9 9 7 5 5 6 5 1 3 6 4 6 9 8 9 11 14 11 10 16 17 18 16 21 24 22 25 26 23 16 17 14 14 14 16 15 15 14 14 15 16 17 16 14 13 13 15 13 8
3 2 1 2 7 10 10 6 6 5 3 5 6 12 15 19 18 11 8 10 12 15 18 18 18 19 21 21 16 18 18 17 17 18 19 18 17 17 17 18 18 19 19 19 19 18 14 14 12
3 2 7 12 11 5 3 3 8 10 10 10 13 15 18 16 13 11 10 9 12 15 17 16 17 20 20 17 13 16 18 19 18 19 20 21 21 21 21 21 21 21 20 21 21 21 20 17 16
4 7 7 6 10 17 10 9 10 5 1 5 6 15 15 15 14 12 12 14 13 15 18 19 18 19 19 16 17 19 22 23 23 23 25 25 26 27 26 26 26 26 25 25 25 25 25 23 21
6 2 5 5 7 11 15 9 7 7 7 4 7 12 12 13 13 13 13 15 17 19 20 21 21 20 20 19 20 22 25 28 27 26 27 29 29 31 31 31 30 29 28 28 28 29 28 27 26
7 8 7 6 4 6 8 8 3 10 11 9 9 11 11 10 10 10 12 14 16 18 18 21 22 21 21 22 23 24 27 28 27 27 29 31 33 34 34 34 33 32 31 30 30 30 30 30 29
6 8 10 16 5 5 11 15 15 9 10 12 14 16 13 10 12 11 13 16 18 22 23 25 25 22 22 23 25 27 26 26 28 29 31 31 31 33 34 33 31 31 30 29 30 30 30 30 31
8 6 13 11 9 6 11 21 20 15 13 13 15 15 11 11 15 13 13 14 17 21 25 27 28 27 25 24 24 28 29 28 26 25 24 26 27 28 28 28 29 31 31 30 30 31 32 32 33
11 11 9 1 8 14 19 24 18 9 10 7 8 11 13 16 18 17 17 16 17 19 22 26 28 28 26 27 27 26 26 26 27 27 23 20 22 26 28 29 30 31 32 31 32 33 33 32 33
8 11 10 10 12 20 13 16 6 15 14 12 12 8 9 13 13 13 10 16 16 18 22 22 24 24 24 23 27 28 28 28 27 28 28 29 26 23 26 29 30 30 32 33 31 31 30 32 33
11 14 10 14 15 15 9 15 8 6 8 12 12 7 7 5 4 8 11 11 15 15 16 26 23 19 22 31 29 33 33 31 29 27 29 32 32 31 31 31 31 33 35 37 35 35 37 38 39
11 14 15 17 19 3 14 5 9 8 12 15 14 10 9 11 13 13 15 19 18 20 25 32 35 27 28 38 38 44 41 36 32 29 31 33 36 37 37 36 32 33 36 38 39 44 44 41 42
13 12 15 18 14 5 16 4 8 9 12 14 11 14 17 12 13 19 25 31 28 28 31 40 41 35 33 39 40 43 47 45 37 34 36 37 40 41 39 40 39 38 41 43 46 48 44 42 44
19 20 20 12 6 4 18 3 4 9 16 16 13 15 13 14 16 24 27 28 28 30 34 38 40 37 35 33 37 47 50 45 42 38 38 41 45 46 42 40 42 45 46 49 46 44 46 47 42
14 18 8 1 1 2 5 16 2 16 10 14 12 10 12 18 22 23 25 27 28 31 36 39 38 39 36 35 36 49 42 42 40 37 38 42 47 49 47 44 46 47 47 51 52 51 49 47 53
18 20 8 4 4 4 13 11 8 12 14 6 6 11 16 14 20 24 27 33 34 33 40 34 34 32 36 37 47 42 39 38 37 38 41 42 45 54 49 47 50 50 53 52 55 54 61 56 56
13 18 5 1 0 9 9 3 6 4 19 22 14 15 17 23 27 30 31 31 34 34 32 30 38 35 36 48 52 43 41 41 40 41 44 46 39 49 52 50 54 55 52 58 56 61 54 50 49
7 14 7 3 3 3 7 2 5 12 15 22 11 28 20 25 34 42 39 38 37 31 29 31 38 42 52 59 51 48 46 40 41 45 46 44 41 40 50 58 54 56 56 45 39 43 43 44 46
6 10 5 7 2 3 7 15 14 15 25 24 33 37 37 33 36 39 39 38 37 40 40 43 46 52 54 49 49 49 48 50 48 46 40 37 35 37 45 50 49 41 41 47 43 42 41 42 42
4 6 7 5 5 3 2 9 20 33 18 36 36 31 29 31 29 27 28 28 32 39 43 54 52 48 48 49 49 52 53 52 49 41 33 33 33 37 39 42 40 38 41 41 39 38 39 40 41
2 9 20 8 6 21 21 28 20 10 37 35 25 19 29 25 28 34 35 37 40 49 57 47 47 47 48 48 52 54 53 51 42 36 33 35 30 34 34 32 35 36 36 37 39 40 39 40 41

GFSSGP_700_spd_009.txt.gz
Wind_Speed
4 4 11 14 7 8 17 13 7 1 1 8 12 10 14 14 7 3 8 13 12 12 8 11 7 8 3 1 2 1 7 6 6 7 7 5 6 8 10 11 13 13 15 16 18 17 19 20 25
6 17 15 12 17 21 12 11 10 9 8 7 8 10 10 10 10 6 7 10 12 13 10 9 5 6 4 3 4 7 8 7 7 9 8 7 7 9 11 12 17 16 16 17 16 15 15 19 26
20 16 13 18 18 14 12 10 8 8 5 6 8 8 9 12 10 5 10 11 12 10 7 4 2 5 7 9 11 12 12 13 14 14 13 12 9 9 12 13 16 18 17 16 15 15 16 17 24
11 15 18 21 20 17 14 8 9 6 5 7 9 4 9 9 9 10 11 10 8 4 1 3 6 9 10 12 12 14 15 15 15 15 16 15 12 11 12 13 15 16 14 15 14 15 18 19 17
12 16 17 20 19 16 14 11 7 4 4 5 8 8 7 7 5 8 5 4 1 1 3 7 9 9 9 13 14 16 17 17 17 17 17 17 16 14 14 14 14 14 14 16 14 14 17 18 19
14 12 14 16 14 9 7 6 1 0 4 7 7 7 4 8 8 6 4 2 1 6 9 11 11 12 14 17 19 19 19 20 19 17 15 15 14 12 12 12 12 11 11 10 11 11 14 19 17
15 11 14 14 12 9 5 2 4 6 6 6 9 7 7 9 5 2 6 8 8 10 10 13 13 13 16 17 19 20 20 19 18 16 14 14 13 11 9 9 8 6 6 8 7 6 6 7 13
13 13 18 12 9 7 7 2 1 4 8 4 4 6 7 9 10 8 10 14 14 12 11 8 8 11 14 16 16 15 12 12 10 8 10 12 12 12 11 11 10 9 10 10 9 7 8 12 12
13 13 18 12 6 6 5 4 1 5 7 1 2 4 7 9 10 13 11 13 13 11 7 7 9 14 15 17 18 10 12 8 9 7 7 9 9 11 10 10 11 12 12 12 12 13 14 14 14
15 15 11 7 5 5 3 1 4 6 3 2 2 4 8 11 14 12 11 10 11 7 7 11 16 19 20 21 18 9 12 12 12 12 13 13 13 12 13 14 15 15 15 14 14 14 17 16 14
5 4 2 3 3 7 8 8 13 11 6 5 6 8 11 12 8 8 10 8 7 9 11 15 19 22 22 22 18 12 12 14 14 15 16 16 17 17 17 18 18 18 18 18 18 17 17 19 18
7 14 14 9 8 5 5 3 4 3 2 4 6 11 13 13 12 9 7 9 11 11 13 16 19 21 22 21 18 16 16 18 19 19 19 19 20 20 22 23 24 24 23 22 22 22 21 21 21
9 7 7 5 4 7 7 5 6 4 5 4 7 7 9 11 11 11 10 11 11 12 15 16 17 18 18 19 19 20 21 22 23 24 22 21 22 24 25 26 26 27 28 28 27 26 25 25 25
6 4 3 4 3 4 7 5 2 6 8 5 6 6 7 10 10 11 10 10 10 11 12 14 18 21 20 22 22 23 24 26 26 25 26 26 26 27 29 29 30 30 30 29 28 28 28 29 28
4 3 2 8 6 5 7 5 4 8 8 6 6 8 8 10 9 10 10 10 11 11 13 17 20 23 23 23 23 23 25 27 29 31 30 30 31 31 31 31 31 30 29 29 28 28 29 30 30
3 2 8 4 4 3 11 13 11 11 11 8 7 9 7 9 10 14 12 12 11 11 13 16 20 24 26 25 24 24 25 26 26 27 27 28 28 29 29 29 29 28 27 27 27 28 28 29 30
4 5 9 1 2 5 9 23 18 18 15 8 6 9 8 12 13 11 11 15 13 12 14 16 20 24 25 22 20 22 23 25 26 26 26 26 27 27 28 28 30 31 31 29 29 29 29 30 32
6 10 10 7 11 14 17 22 17 11 11 6 4 5 10 15 12 10 9 10 9 11 14 17 17 20 21 15 21 24 24 27 29 29 27 26 26 27 28 28 30 31 30 28 28 28 29 30 32
8 12 16 9 9 20 16 17 14 11 13 5 5 8 4 9 8 9 6 4 8 11 16 17 17 23 26 27 30 31 32 30 33 33 31 29 27 27 28 29 30 32 33 32 30 30 30 30 31
9 13 15 11 14 15 9 10 9 9 5 3 5 4 1 3 5 6 7 11 11 11 16 15 21 27 27 28 31 34 39 34 38 36 33 32 32 32 32 32 32 34 36 36 37 37 36 35 35
10 10 14 17 18 4 12 1 9 9 4 6 5 3 4 8 9 9 13 18 19 18 15 21 27 32 35 35 35 36 41 38 41 35 32 33 35 36 37 38 39 41 42 40 40 41 42 39 39
13 16 16 15 14 3 7 3 9 5 7 9 8 8 8 9 13 14 20 24 27 28 30 32 33 36 39 38 43 40 42 41 48 43 38 36 36 37 37 39 42 46 47 44 44 45 46 47 46
16 15 16 13 6 4 7 2 9 8 7 11 12 12 10 14 20 23 25 30 32 33 32 33 34 35 36 38 40 40 42 43 54 48 43 42 41 42 44 43 44 46 44 47 43 47 47 49 51
13 13 4 2 2 2 3 12 10 11 10 8 9 8 13 19 21 22 26 28 33 31 33 35 35 36 40 40 40 39 42 49 55 46 45 46 45 43 45 46 46 48 52 58 47 49 56 56 55
14 10 3 3 3 4 7 5 4 12 17 9 6 5 14 15 19 24 28 34 29 29 30 32 34 36 39 42 45 46 51 51 46 46 46 45 46 48 48 48 46 49 55 58 55 57 63 64 63
11 13 5 3 1 7 9 4 7 9 15 6 3 22 19 17 22 28 26 27 26 26 29 34 37 39 42 46 54 51 47 46 45 46 48 49 50 50 50 47 42 47 53 56 58 63 66 56 50
4 7 6 1 2 4 7 1 10 15 16 23 22 25 19 22 27 24 28 27 26 31 34 39 43 46 51 54 47 48 47 46 48 50 51 50 46 41 37 34 35 42 50 58 61 57 49 49 45
4 4 3 6 3 3 8 18 13 15 21 35 32 27 24 23 21 25 26 28 32 35 37 42 49 54 52 49 45 46 50 52 52 52 50 43 35 30 30 30 30 35 44 41 42 44 42 43 43
3 2 3 2 2 3 3 9 14 28 24 26 30 30 27 24 29 30 32 34 34 38 43 49 50 47 48 48 48 50 52 55 57 54 49 36 31 30 30 29 28 37 40 39 39 38 39 40 42
6 4 11 4 4 12 16 19 9 8 24 28 29 31 27 30 28 30 33 37 41 42 45 46 49 49 45 46 46 51 52 53 53 50 42 32 31 31 24 26 28 33 36 37 39 41 44 45 45

GFSSGP_700_spd_012.txt.gz
Wind_Speed
5 7 16 12 8 13 15 9 7 7 14 16 12 10 7 5 1 2 9 12 12 13 14 15 13 5 4 2 2 2 4 5 8 9 9 8 9 10 13 14 13 12 14 16 17 18 17 19 20
13 21 14 10 18 21 15 13 14 12 11 9 9 9 9 9 7 7 9 12 15 14 12 12 11 7 6 4 3 4 4 6 7 9 9 9 9 11 14 15 16 19 19 18 20 20 20 20 21
21 18 17 16 18 18 13 13 11 11 10 10 10 9 11 9 8 5 8 10 13 13 9 7 6 6 7 6 8 7 9 8 9 8 7 6 8 10 13 15 18 19 17 19 20 20 20 20 21
17 16 17 20 20 15 12 10 10 10 13 13 9 4 11 10 8 9 11 11 10 7 6 7 8 9 10 11 12 11 12 13 12 12 11 10 10 10 13 16 18 18 18 18 18 19 19 20 21
18 20 24 23 22 19 14 9 8 8 11 11 9 9 12 9 7 7 6 6 6 5 4 6 8 9 11 14 15 17 17 18 15 13 13 13 12 12 12 15 16 17 16 16 18 18 17 18 19
19 17 21 22 20 17 14 9 2 3 6 6 7 6 7 11 8 4 4 3 1 3 6 8 7 7 9 12 14 14 14 12 9 8 7 6 7 6 7 10 11 12 11 10 10 11 14 16 17
15 20 18 19 15 11 8 6 3 3 4 4 5 4 5 6 7 6 5 4 3 6 6 5 4 7 7 8 10 11 9 9 6 3 1 4 6 3 2 2 3 5 7 8 9 9 5 7 12
15 15 17 13 11 8 6 2 3 4 4 2 4 3 7 7 7 1 4 6 6 5 6 2 4 5 7 10 13 8 9 8 8 5 4 8 9 9 8 6 4 5 7 8 8 8 7 10 12
13 18 12 9 6 8 5 2 2 6 3 2 1 2 3 2 3 5 4 3 3 4 2 1 3 6 11 13 14 9 8 7 6 6 7 8 9 10 9 9 9 11 12 13 12 13 13 13 14
11 11 7 4 2 2 3 3 6 8 5 2 2 3 6 7 7 7 6 5 3 2 2 5 11 16 17 17 16 12 9 10 11 10 10 10 11 11 11 12 13 14 14 15 16 16 16 17 17
10 7 5 3 2 5 5 7 10 8 2 6 8 11 13 11 9 8 5 4 3 5 7 9 14 15 15 15 14 14 14 15 15 15 15 15 14 15 16 17 18 19 19 20 20 20 20 20 20
18 16 11 9 6 5 4 3 3 5 6 10 8 9 10 10 11 9 6 5 6 8 9 13 13 16 19 18 17 17 16 18 19 19 19 18 18 19 20 21 23 24 25 25 25 24 25 24 24
13 8 5 3 3 4 2 3 3 4 4 3 5 5 5 8 9 12 9 9 7 8 10 12 13 17 19 20 21 21 20 21 22 23 23 22 22 23 24 25 26 27 28 29 28 28 28 27 27
7 5 2 2 4 1 2 1 1 5 7 3 1 2 3 5 7 9 7 8 7 7 8 10 14 19 21 22 22 20 20 22 23 24 25 26 26 27 28 29 30 30 30 30 30 30 29 29 29
5 3 2 1 2 5 5 4 1 5 6 4 3 2 3 5 7 7 7 7 6 5 7 10 14 19 23 24 24 21 20 23 25 26 27 28 29 29 30 30 31 31 31 31 30 29 29 29 30
2 1 2 3 1 5 8 9 4 12 15 12 10 5 4 6 9 7 6 7 7 7 9 11 15 17 19 21 17 16 19 21 25 25 25 26 28 30 31 31 31 31 30 30 29 29 30 30 30
2 2 6 2 2 5 9 18 20 15 16 7 8 8 8 9 11 8 7 7 7 9 11 15 16 15 17 18 17 22 24 25 32 29 29 27 26 27 29 30 31 31 32 32 33 32 32 31 31
6 8 10 12 13 15 16 20 17 13 10 4 6 6 9 10 10 10 10 10 4 9 14 17 19 17 19 23 23 28 28 31 33 33 34 36 30 28 29 29 29 30 29 28 29 31 32 32 31
7 11 14 13 11 18 17 13 8 5 9 8 4 4 6 10 13 12 10 5 5 6 13 19 20 21 26 28 26 26 27 29 30 32 33 36 32 30 30 30 31 33 34 31 31 30 31 31 31
10 12 12 8 11 16 8 4 6 7 6 3 2 2 5 6 10 10 9 10 15 16 13 14 16 21 26 29 30 31 30 32 30 33 35 38 39 36 36 36 35 37 38 37 37 39 39 39 37
8 7 13 15 14 6 9 2 3 4 4 5 4 2 6 7 7 7 12 15 19 22 17 17 20 25 28 28 30 36 38 40 42 39 42 44 48 40 39 41 42 41 42 42 42 43 45 44 44
12 13 14 13 10 1 9 2 10 3 3 5 5 3 5 7 10 12 16 21 21 22 24 23 24 27 30 32 34 37 40 43 42 44 51 50 45 40 41 45 46 45 44 45 42 44 49 48 49
10 14 16 10 4 2 3 2 5 8 6 6 7 5 7 11 15 19 20 21 24 26 23 25 26 28 32 33 36 38 41 45 49 54 51 46 46 45 44 46 48 49 49 50 48 49 52 53 54
13 13 5 3 2 2 1 9 7 4 10 13 4 2 6 12 17 17 20 26 26 23 24 26 28 30 32 34 37 39 44 49 48 47 48 47 47 47 47 49 51 52 54 53 52 55 57 57 59
11 7 2 2 3 3 4 5 4 7 7 5 5 7 11 14 16 21 25 28 25 25 27 29 31 33 35 36 39 45 44 42 45 47 48 47 47 48 50 50 52 52 52 51 48 49 56 60 63
10 10 5 2 1 6 5 5 10 10 11 5 6 16 19 24 22 22 28 26 25 28 30 32 34 36 38 43 42 41 44 48 47 44 44 48 51 51 51 51 48 45 41 38 36 39 52 65 61
4 5 6 1 2 3 4 3 9 20 17 19 27 32 28 21 18 23 23 25 27 27 30 34 37 41 44 43 46 49 48 45 43 46 50 52 51 51 51 42 36 32 30 30 35 44 50 44 46
2 2 3 4 2 3 8 13 6 16 18 28 32 28 27 23 18 20 24 26 29 34 38 43 50 54 54 51 47 42 42 46 50 51 54 52 51 48 38 31 27 27 26 28 35 43 44 44 41
2 1 2 2 2 3 3 7 11 21 25 27 28 33 31 26 25 28 30 33 38 45 50 51 52 49 49 42 42 43 48 53 54 56 57 54 49 39 32 29 30 29 26 28 30 33 35 37 37
4 3 6 3 2 8 12 18 11 9 20 32 31 34 29 27 29 32 36 41 46 51 54 51 47 44 40 41 44 49 53 53 55 56 52 48 40 33 33 33 32 27 29 30 32 33 34 37 40

GFSSGP_700_spd_018.txt.gz
Wind_Speed
6 9 16 20 6 10 14 11 13 14 9 14 12 8 5 5 5 2 10 12 13 13 13 11 8 6 4 3 2 1 1 3 5 6 8 10 11 12 13 13 13 15 16 16 17 17 19 20 20
11 18 20 12 10 18 14 13 12 10 16 14 13 10 7 4 5 11 13 14 15 16 14 12 10 8 6 4 3 2 4 6 8 9 11 12 13 12 14 14 14 14 15 17 19 19 21 23 23
19 18 11 11 12 16 17 13 16 16 14 14 12 11 7 4 6 11 14 15 17 17 14 11 8 6 4 2 2 4 6 8 11 12 13 14 14 14 16 16 16 15 16 17 18 19 22 22 21
22 22 17 14 18 15 15 15 12 14 14 13 8 4 6 7 10 15 17 18 15 13 10 8 5 2 3 5 8 9 10 11 12 13 13 12 13 14 16 17 16 16 16 17 18 20 22 23 23
21 16 17 18 17 15 15 12 12 9 10 10 6 4 6 9 14 19 18 15 13 10 7 3 2 6 8 10 11 12 12 12 12 12 11 10 11 12 13 14 15 15 16 17 18 19 19 20 20
13 15 19 19 16 14 13 15 11 9 8 6 5 4 7 13 16 15 13 10 8 7 3 3 6 8 7 8 8 7 6 7 7 6 6 6 7 8 8 8 9 10 11 12 12 13 16 17 16
15 14 17 19 17 13 11 12 8 7 6 4 5 5 11 14 14 12 9 6 5 3 3 5 5 5 5 4 6 4 3 3 5 3 2 5 7 7 8 9 8 8 9 10 11 12 12 13 13
19 13 18 15 12 12 11 8 7 5 5 6 6 2 9 11 9 9 7 5 6 5 4 4 3 4 3 5 6 4 4 5 5 5 5 9 9 11 11 11 11 11 12 13 15 16 17 17 18
13 11 13 11 11 10 10 7 3 4 8 5 5 7 9 9 9 9 8 8 7 5 4 4 2 2 3 3 4 4 3 4 5 7 8 10 13 14 15 15 15 15 16 17 18 19 20 21 21
9 9 9 11 8 9 7 6 2 5 6 5 6 6 6 6 8 9 9 8 7 6 6 3 1 4 6 7 6 6 6 7 8 9 11 13 15 16 18 19 21 22 23 23 24 24 24 25 26
12 8 10 8 10 10 7 5 6 7 7 7 6 6 6 6 6 7 9 9 9 8 5 4 4 6 7 8 9 8 7 7 8 10 12 13 14 15 17 19 21 23 25 27 28 28 29 29 29
13 10 9 10 10 8 6 7 7 10 8 12 11 8 7 7 6 5 8 9 8 7 5 4 5 5 7 11 12 10 8 7 7 8 11 13 15 16 17 19 21 23 25 27 29 30 31 32 32
13 12 12 9 8 8 7 8 7 11 12 10 10 7 4 4 4 3 6 10 10 8 6 3 2 3 6 7 8 7 6 9 10 11 14 14 14 15 17 21 23 24 25 26 26 27 27 29 30
13 8 6 5 4 5 7 7 6 6 6 8 8 5 5 4 2 2 5 9 10 8 5 3 3 4 6 7 9 9 10 13 14 14 16 18 18 19 22 22 23 25 27 28 28 27 28 28 28
8 7 5 1 5 8 6 5 5 8 5 3 8 10 9 9 6 4 6 10 10 7 5 5 7 9 9 11 11 15 17 19 20 19 21 20 20 18 19 20 21 24 25 25 26 27 28 29 30
6 5 5 1 4 4 5 5 7 12 7 13 13 11 14 13 10 9 9 7 5 6 8 9 10 13 13 14 18 21 21 22 21 22 22 23 23 24 25 25 26 27 26 26 27 28 29 30 29
4 3 2 2 5 6 5 5 10 17 19 14 19 18 17 16 15 13 9 6 6 9 11 12 13 15 17 18 21 23 23 23 23 23 23 25 25 26 28 28 26 29 29 30 31 30 32 32 34
3 2 2 3 6 6 5 6 10 13 8 10 12 12 15 17 18 15 12 10 11 11 10 12 14 18 21 21 22 21 23 23 23 24 26 28 28 30 32 32 30 31 30 29 31 33 35 37 37
2 2 3 4 5 2 2 3 4 3 6 11 9 10 11 16 15 13 12 12 12 11 10 12 14 17 20 22 21 22 24 26 27 27 28 32 33 35 38 40 39 37 38 36 36 36 37 37 39
3 3 2 4 4 5 3 1 2 4 6 7 7 9 8 11 13 13 11 11 12 13 15 14 17 17 19 21 24 26 28 30 32 34 35 37 40 41 44 46 40 39 39 38 36 37 40 41 41
5 1 4 6 8 4 2 3 3 5 6 6 4 4 8 11 10 9 11 12 14 17 18 19 19 19 21 25 28 31 34 36 37 37 39 40 44 43 46 42 44 41 38 39 39 41 45 48 47
4 7 11 10 5 5 7 5 3 6 5 5 6 7 7 7 8 9 10 14 18 19 21 22 20 23 27 30 33 36 39 41 43 45 46 45 47 51 45 41 41 42 42 44 45 47 48 50 51
4 11 11 6 5 4 3 6 3 5 4 4 7 9 9 9 8 11 15 17 20 22 22 23 25 27 30 33 36 39 44 46 48 51 53 52 51 47 38 39 43 44 45 46 48 49 52 55 55
8 10 5 1 3 5 3 3 6 5 3 3 3 11 10 10 12 15 19 22 24 25 26 26 28 30 31 36 40 43 45 49 54 53 50 49 47 40 41 41 44 46 48 51 52 55 57 56 54
8 4 2 2 4 1 4 4 2 6 8 7 11 11 11 13 17 22 21 22 25 27 28 28 29 32 37 40 46 52 49 54 54 51 49 47 41 43 44 44 47 52 55 58 59 58 55 51 47
7 6 3 3 2 3 4 4 6 11 12 13 13 13 15 21 24 23 22 23 25 27 28 31 35 40 45 46 50 49 48 47 47 47 47 46 46 43 50 53 55 56 55 53 49 45 41 38 38
4 3 3 1 4 3 1 2 6 13 13 13 14 18 24 24 26 26 24 24 25 27 32 35 39 42 45 45 46 45 44 43 44 46 45 43 46 53 54 54 52 49 45 39 34 32 33 34 36
1 1 2 3 3 3 3 7 10 8 13 14 18 26 26 27 24 21 20 22 25 32 37 39 39 42 46 46 46 44 44 47 46 42 46 51 52 53 50 44 40 36 30 27 31 32 30 29 29
3 1 1 1 1 3 4 7 8 5 10 12 19 26 26 26 23 21 21 28 34 38 39 43 44 44 43 40 39 39 40 41 44 47 51 52 50 43 36 31 29 27 26 30 37 36 30 27 28
5 4 2 2 3 5 5 12 8 4 14 23 19 27 27 23 18 22 30 36 42 42 43 42 40 39 37 34 33 36 41 46 50 51 48 41 35 31 29 26 26 26 31 33 31 30 30 32 31

GFSSGP_700_spd_021.txt.gz
Wind_Speed
7 9 15 18 5 9 10 8 9 9 8 7 8 4 5 3 3 2 9 8 8 10 12 13 13 11 8 6 5 4 3 4 6 8 9 11 12 13 15 14 15 18 18 18 18 19 18 18 19
10 14 19 7 9 12 13 10 12 9 11 12 10 8 5 6 6 5 8 9 10 12 13 12 10 7 5 4 3 2 4 6 9 11 13 14 15 15 15 16 17 17 17 19 19 21 22 21 20
15 21 9 6 13 11 13 11 10 12 10 7 5 7 5 4 7 10 12 12 13 14 12 11 9 7 4 3 4 6 9 11 13 15 15 15 16 16 16 16 16 17 18 18 20 21 21 22 21
20 13 8 11 12 9 13 12 12 9 7 6 5 2 1 7 7 11 14 15 15 13 10 8 5 4 5 7 9 10 12 12 13 13 13 13 14 14 15 16 16 17 18 19 20 20 22 23 23
19 8 9 11 12 11 13 11 9 7 5 4 3 2 3 7 11 17 18 17 14 10 8 5 5 6 9 11 12 12 11 9 9 10 10 10 11 12 13 13 14 15 16 17 19 20 21 20 19
4 9 11 15 14 12 11 9 8 7 7 3 6 7 5 9 14 17 15 12 10 8 5 5 7 9 11 9 7 7 5 5 6 7 7 7 8 10 11 12 13 13 13 14 15 16 16 17 16
7 8 13 14 13 11 9 8 6 7 6 5 6 5 7 14 15 12 10 8 6 6 5 7 9 8 7 5 7 6 5 5 7 6 6 8 11 12 13 15 15 15 15 15 16 17 17 17 17
7 8 12 12 12 10 8 7 7 6 6 6 8 3 13 14 12 11 9 6 6 7 9 9 6 6 6 6 7 6 7 8 7 6 7 10 12 14 15 15 16 16 16 17 19 20 21 21 21
10 11 12 8 8 7 7 6 5 6 5 6 6 7 12 12 11 11 10 10 11 11 8 6 3 4 5 4 4 5 5 6 7 8 9 11 14 16 18 17 19 20 21 22 22 23 23 24 25
3 6 9 6 5 9 7 5 3 6 6 5 7 9 12 10 11 11 11 11 11 9 7 5 4 4 2 2 4 6 7 8 9 10 11 13 14 16 18 19 20 22 23 25 26 27 28 29 28
2 6 6 5 8 7 7 5 6 7 5 6 6 9 12 6 8 10 10 8 9 8 6 6 6 5 1 4 5 5 5 5 6 6 7 11 13 15 16 19 21 23 24 26 29 30 30 31 31
5 6 6 7 8 8 6 5 5 7 9 9 8 8 11 6 8 10 10 11 9 8 6 7 7 4 1 5 8 7 7 7 9 12 13 14 16 17 18 19 21 24 26 27 27 28 30 31 31
7 9 8 8 8 6 8 5 4 6 5 8 8 8 9 9 9 9 11 11 9 9 8 8 5 3 3 3 5 6 7 10 12 15 18 19 19 20 21 22 23 23 24 25 26 26 27 29 30
10 8 7 5 4 6 7 5 5 7 8 8 9 8 8 9 8 9 10 11 10 9 9 10 8 7 7 7 9 11 11 14 17 21 21 21 22 23 22 20 21 21 22 24 26 26 26 26 27
9 6 4 6 6 4 5 8 6 6 7 8 11 10 11 10 9 9 9 11 12 10 10 12 11 12 13 14 16 17 19 19 21 23 26 26 25 24 22 22 25 25 24 26 26 26 27 28 29
7 8 11 6 5 6 6 13 11 6 7 7 9 11 13 13 12 10 9 9 10 11 11 13 14 16 17 19 20 21 23 23 23 24 24 25 25 24 23 23 25 25 23 25 27 29 31 31 32
9 12 3 3 6 4 7 1 6 8 12 13 14 15 12 14 14 13 13 10 9 10 13 15 18 18 21 24 23 25 25 24 23 25 26 29 29 29 29 28 28 30 29 28 30 30 33 35 35
6 4 5 5 3 5 8 9 10 10 12 11 10 14 15 14 15 17 13 17 17 16 16 19 20 20 23 26 25 26 26 24 26 29 30 31 32 35 36 37 36 35 38 37 37 37 34 35 35
0 3 4 4 5 3 6 7 6 3 2 3 5 7 10 11 21 28 21 19 19 18 18 15 17 19 20 24 26 27 27 28 30 34 38 37 39 41 43 43 42 41 44 41 40 38 36 35 35
2 4 2 5 4 2 5 5 2 2 5 7 6 7 10 13 21 22 20 18 16 13 14 15 16 17 19 24 26 27 29 32 36 37 41 45 48 47 49 49 51 47 49 46 42 39 38 39 38
4 3 4 7 9 11 7 9 6 5 8 9 11 12 13 8 5 13 13 13 14 15 18 21 22 26 24 23 30 32 34 37 37 43 45 44 47 50 54 55 53 47 45 43 41 41 42 43 41
7 4 9 9 8 10 11 7 10 9 7 7 8 7 7 5 7 10 12 13 15 18 21 24 27 29 28 28 34 35 37 37 42 47 50 52 50 52 51 49 48 45 41 44 44 43 44 47 49
6 11 8 7 8 10 10 13 13 12 7 5 4 4 3 10 12 12 14 17 19 23 27 29 32 33 33 34 35 37 40 42 44 49 56 55 50 50 52 50 46 42 44 46 46 47 49 53 56
5 7 7 4 5 7 3 8 15 10 7 6 2 0 4 14 15 16 18 22 28 31 27 29 28 30 33 34 39 43 46 48 51 53 54 55 51 49 48 49 48 49 50 49 55 57 57 58 60
8 6 6 3 5 2 3 6 3 5 6 7 4 0 12 16 16 18 22 22 26 29 28 26 27 30 37 42 44 46 49 50 49 50 49 49 49 50 51 50 50 50 56 61 61 59 55 51 50
5 4 3 4 3 5 3 7 5 8 6 3 1 3 9 12 19 26 27 26 25 28 28 26 27 33 36 40 43 44 45 45 44 45 46 48 49 49 49 51 55 59 57 53 48 46 44 41 35
5 2 1 2 2 3 6 4 6 9 7 3 4 7 9 15 25 18 16 15 23 26 28 32 34 38 40 39 41 41 41 42 43 43 41 42 45 48 51 54 53 50 44 42 37 34 33 34 34
2 2 4 1 3 4 3 9 6 10 8 8 8 12 12 14 14 14 19 21 24 30 34 40 42 39 39 37 38 39 40 39 40 42 46 49 52 52 49 41 37 36 36 32 31 30 34 35 32
5 3 4 5 3 4 4 6 3 3 6 8 12 16 13 13 15 17 21 26 26 28 30 33 36 39 38 36 37 38 38 42 45 48 50 51 50 45 38 32 30 31 30 30 32 32 37 35 35
3 4 4 4 5 6 6 12 3 1 6 12 12 16 17 15 17 20 21 26 31 32 36 39 39 36 38 37 37 38 42 44 46 47 49 48 41 31 27 29 29 32 36 38 40 39 40 38 35

GFSSGP_700_spd_024.txt.gz
Wind_Speed
7 10 15 19 5 10 17 7 8 5 5 8 8 14 10 4 2 12 15 11 10 5 11 14 13 9 7 5 5 3 3 4 5 7 9 11 12 13 14 15 15 17 17 18 19 18 17 18 19
10 13 18 10 14 20 8 11 14 12 9 12 13 4 7 9 5 3 7 9 7 7 11 13 12 9 6 4 2 4 4 7 9 11 13 14 14 16 16 16 17 17 18 18 18 18 18 20 19
12 16 13 7 15 27 16 12 15 11 11 7 4 8 11 11 7 6 6 8 8 5 9 10 9 7 4 4 6 7 9 11 13 14 15 14 14 14 15 16 17 18 19 19 20 20 21 21 21
18 17 9 11 14 13 14 16 13 9 8 5 2 2 7 8 8 8 11 9 7 9 9 8 5 4 6 8 11 14 14 13 13 12 11 10 9 9 10 12 13 14 15 16 17 19 21 22 22
21 14 12 11 13 13 12 10 7 8 4 6 3 12 9 6 8 9 11 11 10 10 7 5 4 7 10 12 12 11 9 7 6 5 6 7 7 8 10 11 13 15 15 15 15 16 17 17 17
12 9 15 10 12 8 7 7 5 3 9 5 6 9 7 6 4 11 12 13 9 6 4 4 7 10 10 10 7 7 4 3 5 7 7 7 6 9 12 13 15 16 16 16 17 16 16 17 16
8 8 17 18 11 8 7 5 4 4 3 7 5 5 7 9 7 13 11 7 4 4 6 8 10 9 8 4 6 7 6 7 8 8 9 9 11 13 13 14 15 16 17 18 19 20 20 21 21
14 16 14 10 11 13 6 3 7 6 8 11 6 6 9 8 12 10 7 5 5 7 11 10 10 6 3 8 8 8 8 8 9 9 10 12 13 15 15 16 18 18 19 19 20 21 22 23 23
5 2 11 9 11 10 8 6 7 6 3 3 6 4 12 10 11 10 9 8 9 10 9 9 8 7 9 4 6 6 7 8 9 10 12 14 14 15 15 15 18 19 20 22 23 24 25 26 26
5 11 14 10 8 7 6 5 3 8 4 5 6 8 11 11 11 10 10 9 9 9 7 7 5 4 5 7 6 4 6 6 8 9 10 14 15 15 19 20 19 20 20 22 24 25 26 28 28
5 12 9 10 4 5 8 3 6 5 4 5 7 12 8 7 8 8 4 4 5 4 1 10 5 3 2 3 4 8 10 10 10 9 14 16 18 20 22 24 26 27 27 28 26 25 25 25 25
1 5 6 7 13 7 5 5 5 4 11 8 8 11 10 6 5 6 6 8 7 10 9 13 4 5 3 2 4 5 6 9 13 15 17 20 23 23 24 24 25 25 24 24 25 24 24 25 25
3 6 7 8 12 6 6 4 3 5 7 9 8 9 9 8 6 6 7 10 5 9 9 13 9 8 4 4 6 8 10 13 15 18 20 21 23 24 27 27 29 28 28 28 26 26 27 27 28
7 8 8 7 6 4 10 4 9 8 6 8 9 6 5 6 6 7 9 11 11 11 12 16 19 9 7 10 11 14 16 18 20 22 23 24 26 26 28 27 26 25 25 24 23 23 22 23 24
8 7 6 5 3 1 4 9 8 10 8 9 8 7 8 7 8 11 9 11 9 10 11 18 15 20 11 13 16 18 22 21 23 26 25 25 28 26 26 25 26 27 26 26 24 25 27 29 31
7 7 9 8 7 7 8 9 13 10 6 7 7 9 10 12 10 12 11 13 14 9 19 6 13 25 19 18 22 23 26 25 25 27 28 29 30 27 29 29 32 33 31 30 29 29 33 36 35
8 10 8 8 6 4 7 3 12 7 6 9 10 12 11 11 12 12 12 12 13 18 19 21 21 25 22 22 24 27 27 28 27 30 28 31 35 33 33 36 38 39 41 40 40 40 39 40 40
10 6 2 2 5 3 7 9 4 6 8 10 12 11 15 9 11 19 21 21 23 22 21 17 20 24 24 24 23 27 30 30 30 33 31 37 37 38 39 42 44 45 45 46 48 49 48 45 44
6 4 3 5 2 5 9 10 6 6 3 2 5 10 11 15 20 24 25 29 27 19 20 22 22 19 18 21 24 25 29 29 31 33 37 40 38 43 46 47 48 49 49 51 52 49 49 45 43
3 3 4 2 5 4 4 8 6 1 4 5 6 11 15 21 25 26 24 26 21 18 17 15 18 19 20 25 24 25 28 31 34 35 40 48 46 49 48 53 53 53 52 49 45 44 46 44 41
4 3 3 4 9 12 11 10 9 6 8 14 17 14 9 13 20 28 29 21 14 13 15 18 22 24 26 28 30 29 31 34 36 41 44 47 45 47 51 52 50 50 50 47 44 42 43 46 43
6 1 6 9 10 13 16 6 13 13 10 10 11 10 7 6 7 12 9 11 14 16 19 22 27 31 32 31 32 33 34 38 40 43 45 46 47 48 50 49 50 51 51 49 48 48 48 47 48
5 11 10 8 10 11 15 11 21 17 12 11 10 8 5 9 7 8 13 17 18 20 21 26 29 32 35 31 30 31 34 38 41 43 46 46 47 49 49 50 51 51 51 51 53 52 51 51 51
5 8 10 9 9 8 14 6 10 13 13 10 7 6 5 4 7 12 16 19 26 29 32 30 27 26 29 34 32 34 37 41 43 44 46 46 46 46 45 46 48 48 51 50 51 53 53 54 52
7 8 7 3 6 2 1 3 9 13 12 12 9 3 3 4 6 5 12 18 22 25 30 32 30 28 30 35 41 45 47 44 43 42 41 42 41 43 44 47 49 53 55 56 55 52 48 43 43
4 4 3 4 4 8 5 4 12 12 11 9 4 2 2 3 9 9 13 14 17 23 29 32 31 32 37 41 43 40 42 42 41 41 40 40 44 47 50 54 53 53 52 51 49 38 37 30 30
5 4 3 4 4 4 7 6 12 11 9 7 1 2 4 8 10 8 11 17 25 28 30 33 36 39 40 42 42 40 40 38 41 41 41 44 45 46 48 49 49 51 42 37 31 38 32 32 30
8 3 4 2 2 3 9 8 9 10 6 4 3 7 8 7 8 10 15 19 27 30 34 37 42 42 45 43 41 38 39 40 41 42 42 44 45 48 49 51 43 33 31 34 34 33 32 34 35
4 3 4 5 3 2 3 4 5 2 3 7 6 11 13 11 19 12 20 30 32 35 36 41 40 43 44 39 38 37 39 41 43 42 43 45 46 47 45 36 34 35 35 37 39 40 39 37 40
3 3 4 2 5 3 4 12 7 4 4 7 10 11 9 17 19 21 28 32 36 36 43 39 40 43 40 38 35 39 40 42 41 41 43 46 45 43 38 32 33 35 35 36 35 37 41 43 37

GFSSGP_700_spd_027.txt.gz
Wind_Speed
10 12 14 13 7 7 11 6 14 8 16 10 8 5 9 8 8 5 13 6 8 10 14 14 12 9 8 4 5 4 3 4 5 8 10 13 14 15 15 16 17 17 17 16 16 16 17 17 16
12 14 15 14 4 7 6 8 18 14 19 10 9 8 0 5 8 12 15 8 8 9 13 13 12 8 6 4 3 4 5 7 9 12 15 15 15 15 15 15 15 15 16 17 16 16 16 16 17
13 16 16 8 5 13 8 12 17 19 9 2 5 5 2 3 1 5 7 9 10 10 12 12 10 7 4 3 5 8 10 13 15 14 12 10 9 9 9 10 10 11 13 14 15 15 16 16 17
15 16 9 5 9 14 21 16 13 16 11 5 3 4 8 4 4 3 2 7 8 8 10 9 7 3 4 7 11 13 12 10 8 6 5 6 5 5 7 9 10 11 13 14 14 14 14 14 15
19 16 8 0 18 17 15 12 13 14 10 7 5 8 6 5 5 3 7 8 8 8 8 5 2 4 9 9 8 6 6 5 4 6 7 7 7 7 11 12 13 15 14 15 15 16 16 15 15
17 9 6 8 13 11 17 15 2 7 9 4 1 3 3 1 2 8 9 10 9 6 3 3 5 8 8 6 5 7 6 6 7 8 8 9 9 10 13 14 15 15 15 16 16 16 17 17 17
12 4 7 9 13 14 15 11 13 19 16 8 3 2 2 2 7 7 9 9 6 4 5 7 9 8 6 3 4 5 5 6 8 8 9 10 12 13 14 15 16 17 17 18 18 19 19 19 19
1 11 7 4 11 16 15 11 8 10 16 10 1 5 4 6 9 8 7 8 6 6 8 10 7 6 5 5 6 5 6 6 8 9 11 13 14 13 13 16 18 19 20 21 21 22 23 23 23
3 15 20 16 19 14 12 11 5 6 8 10 11 9 5 10 8 7 8 8 9 12 11 8 4 3 4 5 5 6 6 8 9 11 11 10 12 14 16 17 19 20 22 24 25 25 26 26 25
7 1 18 17 11 10 11 5 2 10 4 7 8 6 3 8 9 8 8 10 11 11 9 8 5 5 5 4 4 5 5 6 7 9 12 16 19 21 22 24 24 25 25 25 24 23 23 23 22
7 8 10 21 14 8 9 4 8 11 7 4 4 8 3 7 8 8 9 7 6 14 7 6 5 6 7 7 6 5 6 8 10 13 17 20 20 23 23 24 26 26 28 27 26 25 25 23 20
6 5 2 13 16 11 7 8 5 7 7 2 3 6 1 2 4 3 2 6 8 17 13 12 9 7 4 2 6 9 12 14 16 18 19 22 23 23 25 27 28 29 28 27 26 26 24 22 22
2 5 4 7 17 16 11 10 6 8 11 8 4 4 6 4 3 6 4 7 10 14 15 18 7 7 7 5 5 7 12 14 18 18 20 24 25 25 26 26 26 26 27 28 27 26 24 22 21
6 2 5 11 18 12 11 5 10 7 6 10 5 6 3 7 5 4 4 7 11 15 22 19 13 14 12 6 9 9 13 16 20 21 22 24 27 26 25 25 25 24 27 28 28 29 29 30 31
9 8 4 6 5 7 11 9 11 15 8 6 6 4 7 4 1 6 4 6 12 13 22 14 12 17 15 7 16 17 15 21 24 27 27 26 29 30 27 29 28 28 31 32 32 31 32 33 34
10 10 12 8 5 5 4 7 12 17 6 8 7 4 7 10 5 8 12 10 14 16 21 10 20 31 10 14 21 20 19 21 24 28 31 30 33 32 29 32 31 33 38 37 38 40 40 41 41
11 12 13 14 7 5 2 9 22 13 6 4 7 9 9 10 13 14 17 19 20 19 20 26 27 16 16 23 21 20 22 24 26 28 32 34 36 36 35 36 36 39 41 40 41 44 45 47 44
6 7 17 15 13 10 6 2 13 14 13 9 13 12 22 19 22 24 25 22 23 24 23 27 28 27 26 26 22 23 24 25 28 31 32 34 37 37 38 44 44 46 46 46 45 46 45 47 47
4 8 12 16 11 0 5 3 15 9 6 8 12 11 22 25 23 26 28 25 26 29 26 24 23 26 23 23 21 24 29 28 27 28 29 32 36 39 46 44 47 50 49 48 46 45 45 46 43
5 4 8 7 4 8 4 4 9 8 10 10 11 13 13 21 25 26 26 26 28 27 22 21 19 17 22 25 28 29 27 26 27 31 36 40 45 46 48 51 51 49 49 48 47 46 48 47 43
5 4 3 4 3 7 8 6 11 9 13 15 14 13 17 20 22 22 23 23 20 15 15 17 19 20 24 29 31 31 31 31 30 31 34 37 42 45 49 49 46 46 47 48 48 48 46 46 45
3 4 7 8 7 6 6 1 16 17 19 19 17 12 15 22 26 25 19 14 12 14 17 21 23 26 28 28 29 31 32 32 32 34 36 40 43 44 44 44 45 46 46 47 47 49 49 49 49
3 7 8 7 8 9 7 8 22 20 18 17 18 15 16 17 18 15 13 14 15 17 19 22 27 31 33 33 32 31 32 34 37 43 44 43 42 42 41 43 44 44 45 47 49 51 53 53 53
6 7 9 10 8 5 9 9 17 18 20 18 16 15 13 12 12 11 14 17 19 22 26 28 27 27 27 31 36 40 42 42 43 43 42 41 40 40 42 43 44 46 47 48 49 50 49 47 46
6 7 4 2 1 3 8 10 3 13 18 19 18 16 11 8 8 12 13 17 22 26 28 31 30 31 34 37 39 38 41 44 44 44 43 43 43 42 42 44 45 46 48 48 49 46 39 33 28
7 8 4 0 1 5 6 5 11 14 16 13 10 7 8 7 10 12 16 19 21 23 27 32 35 36 41 44 45 42 43 44 43 42 41 47 47 45 45 46 47 47 47 47 43 35 27 28 37
5 6 5 1 4 2 3 15 7 6 1 5 4 4 2 7 9 13 12 21 26 30 32 36 37 41 44 48 48 45 44 44 42 40 44 43 43 44 45 46 46 47 46 39 35 34 34 36 38
11 6 4 3 1 3 6 6 2 7 6 4 6 5 10 11 10 15 21 26 27 29 35 36 39 43 49 44 44 43 43 44 42 44 43 43 42 42 43 44 44 40 38 38 37 38 38 40 41
4 4 1 2 1 4 1 3 7 6 3 4 10 10 12 15 15 22 25 25 29 36 41 39 45 47 44 43 42 42 42 42 43 41 42 44 44 41 41 42 41 38 34 33 37 36 38 35 36
3 2 1 2 2 2 1 7 17 10 11 7 10 12 14 15 20 24 25 27 42 42 40 38 44 43 44 46 44 41 43 41 44 46 47 47 43 43 43 41 39 37 38 38 36 33 35 35 34

GFSSGP_700_spd_030.txt.gz
Wind_Speed
13 12 12 11 6 4 5 3 18 5 9 14 20 18 16 15 16 6 15 12 9 12 15 12 12 10 8 4 5 5 5 5 6 8 11 14 16 16 16 15 15 15 15 15 16 16 15 15 15
15 12 13 10 3 5 8 15 8 10 6 2 5 5 8 9 8 8 9 15 10 14 17 14 12 7 6 5 4 4 6 9 11 13 16 15 13 12 12 11 10 10 10 11 11 11 12 13 14
15 12 11 7 11 11 15 23 16 11 4 6 4 4 2 5 11 9 9 8 9 14 16 12 11 7 6 4 6 9 12 15 16 15 11 7 6 6 6 6 7 8 10 12 12 12 12 10 10
10 11 10 7 11 8 21 16 12 9 10 4 2 2 5 7 8 6 11 12 14 13 12 10 8 6 4 6 11 13 12 10 7 3 4 6 8 8 7 10 10 11 12 13 13 12 12 10 10
12 14 8 7 19 23 17 19 14 16 10 7 1 6 5 4 5 6 14 14 14 14 12 10 7 4 6 11 9 5 3 1 3 6 8 10 10 10 12 13 14 15 15 15 15 14 14 13 13
12 18 8 7 15 15 14 13 15 11 8 5 3 6 6 3 4 10 11 14 15 11 9 6 4 6 9 7 2 4 4 4 6 9 11 11 11 11 12 12 13 14 15 16 16 16 16 16 17
16 7 5 4 19 12 18 19 7 7 5 7 1 1 7 6 10 12 14 13 12 9 6 4 6 8 7 2 4 5 5 7 9 9 9 10 11 12 13 15 17 18 18 19 19 20 20 19 18
10 8 3 12 21 16 15 16 14 10 13 4 4 4 5 6 13 15 15 12 9 7 5 5 7 6 2 4 5 6 7 7 7 8 9 10 12 13 14 16 18 20 21 22 23 23 22 21 20
4 9 7 7 16 14 10 12 11 9 6 3 2 5 8 9 13 14 11 10 7 5 6 5 5 3 3 3 4 4 5 7 8 10 11 12 14 17 18 18 19 21 22 23 22 22 22 22 21
7 7 2 18 18 21 13 9 1 7 7 7 9 7 3 10 10 9 9 8 5 4 4 2 2 2 3 5 4 6 7 8 9 12 14 17 20 20 21 21 22 23 24 24 23 22 21 21 19
2 8 11 16 16 9 7 8 6 6 2 2 3 4 6 6 7 8 6 4 3 5 10 9 6 4 4 1 2 1 2 6 10 14 17 20 21 21 22 24 24 25 24 22 21 21 21 21 20
15 10 13 14 10 8 9 11 6 5 2 3 4 7 3 1 4 5 5 5 1 6 12 15 11 7 4 5 5 6 6 8 12 16 20 21 23 23 24 26 26 25 26 24 22 23 24 24 24
8 6 11 21 13 10 14 10 3 5 8 4 1 4 6 8 3 3 5 4 3 6 15 15 9 8 8 9 9 10 14 14 15 17 20 22 24 25 27 30 27 27 27 27 25 26 27 28 27
9 8 9 15 16 13 10 10 7 7 4 6 5 4 3 4 6 10 7 5 4 7 11 10 8 8 10 10 7 16 19 21 18 19 21 22 23 26 28 31 29 29 31 30 30 32 33 31 31
3 8 8 11 15 12 11 10 11 10 7 4 1 4 5 0 2 7 8 3 3 7 11 13 16 10 14 23 17 14 17 22 23 23 23 24 26 28 27 29 29 30 33 35 35 38 40 38 36
6 4 6 8 8 9 8 7 15 15 10 5 1 4 1 4 3 7 8 8 10 9 12 14 15 12 14 10 13 17 16 21 26 26 27 29 29 29 30 31 32 35 38 40 42 44 44 45 44
11 10 14 8 10 4 6 5 17 17 9 5 3 10 8 12 13 15 16 16 15 17 16 17 17 20 20 25 23 20 16 21 24 27 28 29 28 31 33 34 37 41 44 44 45 47 47 48 46
9 11 17 18 15 9 6 2 15 16 11 12 14 18 18 18 22 23 24 21 18 18 18 21 18 18 22 23 20 16 19 23 26 31 33 32 34 36 37 38 39 45 46 46 49 48 47 46 48
1 3 17 19 13 8 5 13 18 19 18 17 18 19 20 21 20 26 27 20 22 21 21 20 23 24 21 15 14 17 23 26 28 31 32 34 35 38 39 40 45 48 49 51 51 50 47 47 48
8 16 17 14 11 5 7 18 16 17 18 15 15 18 14 25 23 27 28 23 22 23 26 26 19 16 16 16 19 21 23 24 25 28 31 33 36 38 40 44 47 49 50 50 49 47 47 46 46
8 14 16 10 5 4 6 14 14 14 18 17 16 15 16 17 20 23 22 25 27 24 14 15 17 19 20 23 27 28 28 28 28 31 33 34 36 39 43 46 47 47 46 46 48 47 46 47 47
5 4 1 4 6 2 5 9 18 20 19 17 18 18 17 16 16 17 19 22 20 19 19 18 20 23 26 26 24 23 23 25 30 32 35 38 40 40 40 40 44 46 46 47 46 48 48 48 48
3 4 3 2 3 5 4 5 19 20 16 16 16 18 19 20 19 22 19 16 18 21 23 24 25 27 27 27 28 32 36 37 37 38 40 40 40 42 42 42 46 47 47 48 48 49 50 49 49
2 1 3 5 5 2 4 7 27 26 24 15 16 17 17 15 13 10 8 12 18 19 21 22 26 29 30 32 35 38 41 42 42 42 43 44 43 43 42 47 48 47 46 46 46 47 48 47 46
4 3 3 3 2 4 3 2 6 21 21 16 19 20 15 14 11 11 15 21 16 23 25 26 30 35 38 39 41 44 45 45 44 46 47 46 45 44 47 47 46 45 46 47 47 46 45 41 36
5 6 3 3 2 4 3 4 1 13 21 19 17 7 7 12 17 17 19 21 22 27 28 30 33 41 42 41 44 44 42 42 43 46 46 44 45 47 47 48 49 49 50 48 45 43 40 37 37
4 5 5 3 1 0 4 10 8 10 13 10 13 18 16 10 14 15 15 15 19 24 27 29 35 45 45 45 46 43 44 44 44 44 44 43 41 45 50 51 49 46 44 44 44 43 41 40 39
10 7 2 2 2 0 2 9 7 16 9 9 7 10 6 13 14 15 16 19 25 30 31 37 41 46 47 45 47 44 42 42 43 44 42 44 44 53 44 40 43 39 39 40 40 38 38 40 39
5 5 3 2 2 4 2 1 3 12 11 11 10 11 9 11 14 19 22 26 28 30 33 44 47 46 44 47 43 41 42 40 46 45 46 48 46 53 41 38 38 39 37 37 38 40 38 37 36
3 5 2 2 3 2 1 3 6 12 17 13 5 6 11 20 25 25 25 28 32 36 44 45 41 42 46 44 43 42 43 43 48 47 49 48 47 41 39 42 32 36 32 33 36 37 37 36 35

GFSSGP_700_spd_033.txt.gz
Wind_Speed
9 13 9 12 8 6 7 10 12 14 16 15 16 15 14 13 16 4 19 15 11 13 13 12 11 11 8 5 4 4 4 5 7 9 11 15 18 17 16 15 14 13 11 11 12 13 13 12 12
9 12 15 16 4 7 5 11 16 5 17 16 13 10 12 15 7 9 11 15 16 15 13 12 12 8 6 4 5 4 7 9 11 14 16 15 10 9 8 7 7 7 8 10 11 10 10 9 8
10 10 11 8 7 11 7 14 13 13 9 6 7 10 6 7 8 16 13 16 15 16 16 13 11 6 5 6 6 9 12 14 14 12 9 6 7 7 8 9 10 10 12 12 12 12 12 12 11
7 13 11 5 9 9 14 18 16 13 7 10 5 9 2 11 8 7 13 14 15 16 16 12 10 8 7 6 9 12 10 8 5 5 6 8 9 9 10 11 12 12 12 12 13 13 13 13 14
11 12 9 4 1 4 19 20 13 9 13 5 4 4 5 7 9 11 13 16 16 15 15 12 10 7 4 7 9 5 3 4 5 7 7 8 9 10 11 12 12 13 14 14 14 14 14 14 14
12 17 8 5 16 15 18 16 14 14 8 7 5 0 3 7 10 15 15 17 17 13 14 12 7 3 5 7 1 2 3 4 5 6 8 10 10 12 12 13 14 14 14 15 16 15 14 13 13
12 14 6 4 15 12 15 15 12 9 6 4 3 5 5 10 16 15 17 18 18 15 10 6 3 5 6 2 2 3 4 6 8 9 12 14 14 15 15 15 15 16 17 18 19 19 19 18 16
10 6 4 5 17 17 14 9 8 7 4 4 1 1 6 9 16 17 18 17 14 9 5 4 5 5 3 1 3 3 6 8 10 12 13 14 14 15 16 17 18 19 20 21 21 20 20 19 19
12 7 12 14 20 17 11 17 13 9 8 6 1 3 8 8 14 15 14 12 7 3 4 7 6 3 0 3 3 6 7 8 8 9 10 12 15 16 17 19 21 23 23 24 23 21 19 18 16
7 9 8 17 24 15 15 17 11 9 4 3 6 6 8 9 12 11 8 6 4 2 1 2 2 1 2 3 5 5 5 5 5 7 9 13 16 17 18 21 23 24 25 24 25 24 21 19 19
8 6 9 25 17 16 17 10 5 7 3 4 1 2 5 11 12 11 9 8 5 10 9 8 4 5 5 5 2 4 4 5 7 9 12 15 18 19 19 22 27 26 25 25 25 24 23 22 22
9 12 17 21 16 18 12 10 7 7 3 4 9 7 6 5 5 6 9 9 8 8 11 11 7 7 3 2 0 1 5 7 10 12 16 17 18 20 21 24 26 27 27 28 28 27 27 27 28
17 15 8 14 13 15 11 9 6 6 6 1 2 6 9 14 13 8 7 6 6 5 8 10 12 7 13 8 7 9 14 13 14 16 19 19 20 22 24 25 26 27 29 31 32 32 32 33 35
13 13 14 19 15 13 11 10 5 7 7 2 2 6 7 9 9 10 8 8 9 5 5 10 12 5 9 9 15 16 15 19 18 19 21 22 21 25 28 28 28 29 31 33 35 37 39 40 40
7 11 16 16 16 12 10 9 8 5 4 2 7 8 6 5 5 2 3 2 2 1 4 9 10 7 8 9 8 11 15 19 19 20 22 23 23 28 30 32 34 34 34 36 38 40 43 42 43
8 8 11 17 14 11 12 11 10 10 10 3 4 4 5 8 9 9 8 6 7 8 12 14 12 13 12 7 13 15 20 22 21 21 24 25 29 33 35 35 35 36 37 40 41 44 44 45 47
8 4 5 8 12 9 11 1 13 14 10 7 8 8 9 12 13 13 13 13 13 14 16 25 22 18 18 10 14 18 22 23 25 26 28 31 34 35 35 37 37 39 41 42 44 47 50 51 51
8 10 11 13 11 11 8 9 8 19 14 12 12 12 14 15 18 17 17 17 15 17 20 26 20 21 16 17 21 19 21 23 25 27 30 32 34 35 37 39 41 42 45 46 47 51 53 56 57
7 11 14 12 12 15 9 12 11 21 18 18 18 19 22 23 23 23 23 21 19 17 18 19 21 21 23 18 16 20 22 24 25 28 30 31 34 35 37 41 44 45 47 51 54 56 55 55 54
3 4 14 15 13 9 9 16 18 24 21 18 19 20 20 22 24 23 21 18 18 18 20 22 21 15 15 17 18 21 23 22 22 25 28 32 35 38 41 43 46 49 51 51 50 50 51 51 52
11 16 19 16 8 3 11 12 12 16 19 18 17 16 15 15 17 18 19 17 17 19 19 17 15 14 15 17 19 19 19 22 24 28 32 35 37 39 41 43 45 45 47 47 48 50 51 52 51
12 12 10 9 6 6 14 5 11 15 17 16 16 14 12 12 11 15 7 9 10 12 11 13 16 18 19 17 15 15 19 24 30 32 34 35 37 40 42 46 47 49 49 48 50 51 51 51 52
5 7 5 5 4 6 5 5 14 19 20 19 18 15 13 8 9 6 6 6 9 13 14 16 19 21 22 26 30 35 36 37 40 39 39 40 42 44 47 48 48 48 48 51 52 51 51 52 52
6 7 7 6 4 1 2 7 17 27 26 24 20 16 12 7 15 7 7 7 14 13 12 17 24 24 29 35 41 41 40 41 41 40 41 43 46 48 48 46 45 46 46 48 50 50 50 48 46
2 7 3 1 0 4 0 3 3 26 23 19 17 14 10 12 6 7 14 15 22 22 22 28 31 29 37 42 47 45 42 40 42 43 44 45 46 46 46 45 47 50 51 51 46 46 45 42 41
2 2 3 4 3 3 1 1 2 22 13 17 12 11 11 11 9 17 23 22 25 28 24 30 30 31 37 44 48 44 43 45 46 45 44 43 44 45 45 47 48 50 47 44 40 37 38 37 38
4 2 3 4 2 1 1 3 3 11 18 19 17 12 14 23 29 27 20 25 25 23 23 30 32 36 42 50 47 46 45 44 42 41 40 42 43 45 48 48 50 46 41 38 34 33 34 36 38
6 6 1 2 2 1 4 6 6 18 21 21 21 19 22 19 16 20 22 22 22 23 29 32 35 42 46 44 44 44 41 40 41 43 45 48 48 50 50 45 52 47 43 37 31 32 33 36 38
5 3 2 2 2 4 1 5 11 13 19 17 15 13 14 18 21 20 23 25 28 29 31 35 41 42 44 44 42 40 42 44 43 44 48 46 47 48 46 50 44 48 49 32 28 33 36 36 37
5 5 4 1 2 4 2 6 9 9 18 18 17 16 16 18 21 25 26 27 27 30 33 38 46 43 42 41 40 42 44 47 47 48 51 50 53 51 54 41 45 46 29 26 25 29 33 34 35

GFSSGP_700_spd_039.txt.gz
Wind_Speed
10 8 8 7 4 7 4 2 2 6 8 12 17 17 11 12 12 3 12 26 23 22 21 19 17 14 11 9 3 1 1 2 4 6 8 12 9 7 8 10 9 9 8 8 9 9 9 11 11
10 11 10 9 6 6 5 7 8 6 8 21 18 15 10 15 2 2 23 20 17 21 21 18 16 14 11 6 1 1 3 5 7 8 6 2 4 6 7 8 8 9 9 9 9 9 10 9 9
10 13 12 7 9 10 3 5 14 8 9 7 7 3 4 7 6 25 9 11 22 22 20 17 16 13 9 5 2 2 6 6 2 2 4 6 6 7 8 9 10 10 10 10 10 11 10 11 10
10 13 12 12 11 9 6 3 16 16 10 7 5 2 11 6 5 6 15 18 23 22 19 17 14 11 7 5 1 4 1 4 7 7 8 7 8 9 10 11 11 11 11 12 12 13 12 12 11
12 14 12 11 10 9 11 15 18 10 7 3 8 3 3 9 9 13 18 19 22 21 18 16 12 9 6 2 2 1 6 6 7 8 9 10 10 9 9 10 10 12 13 15 16 18 19 17 15
15 14 7 5 12 11 13 18 17 10 9 11 6 1 3 12 15 17 17 17 22 19 16 13 10 8 5 3 3 5 5 8 9 11 11 10 10 9 10 10 11 12 14 16 18 20 21 20 18
11 11 5 13 11 15 23 20 12 19 9 5 3 6 4 14 17 17 19 20 22 19 14 12 11 7 4 3 5 6 9 10 12 10 10 9 8 8 7 8 10 13 16 17 18 19 21 21 20
8 7 11 14 16 18 20 20 17 18 4 2 6 8 6 13 19 18 21 22 20 17 15 13 9 5 4 6 7 9 11 12 10 8 7 7 6 7 8 9 12 15 18 19 19 19 19 18 18
12 9 9 11 11 18 14 8 9 12 11 9 9 6 4 13 19 18 19 18 18 17 13 9 5 5 7 9 9 11 12 10 7 5 4 4 6 8 10 11 12 15 19 20 21 21 20 19 19
12 10 2 8 13 8 4 2 8 16 9 11 10 6 9 16 18 18 18 17 14 10 7 6 6 9 10 11 12 12 10 6 3 2 2 5 9 10 11 12 14 17 21 22 22 22 22 22 22
13 9 6 10 10 13 8 9 11 11 7 4 5 5 16 19 20 18 16 14 8 4 4 7 10 12 14 15 13 11 7 4 1 3 6 9 12 13 14 16 17 20 22 23 24 23 24 25 26
6 8 6 9 14 18 14 9 8 9 9 9 14 12 15 18 18 16 11 8 10 9 10 11 13 15 16 15 13 11 7 5 4 6 10 13 15 16 19 20 21 23 25 25 25 25 26 28 29
4 8 8 11 19 20 12 8 9 9 6 10 20 18 15 15 14 14 13 12 9 11 12 13 13 13 14 15 14 11 7 7 8 10 12 14 16 18 21 23 25 26 26 26 27 27 29 31 33
6 6 14 18 21 16 15 12 10 9 6 16 21 20 21 17 13 12 12 12 10 7 5 8 10 11 13 13 10 7 6 8 10 12 14 16 17 19 23 24 27 29 29 29 30 31 33 35 37
7 7 13 15 17 15 14 11 7 10 9 14 15 13 14 17 17 16 15 13 12 9 9 11 13 15 15 14 11 1 12 12 16 16 18 17 18 22 25 27 30 31 33 35 36 38 39 40 40
10 9 17 15 16 16 15 10 9 10 13 13 8 9 9 10 11 12 13 14 14 15 16 18 19 19 19 21 21 8 28 11 14 15 19 19 21 25 28 30 33 35 36 39 40 41 43 45 47
8 8 12 16 14 14 14 6 10 10 14 14 11 8 8 8 10 11 12 14 15 15 17 21 25 29 29 28 20 17 8 10 13 18 21 24 28 30 32 35 36 38 40 42 44 45 48 50 52
9 9 10 15 15 11 10 8 5 7 13 13 13 11 11 12 12 14 15 16 17 18 19 23 30 36 36 17 20 1 6 11 15 20 25 27 28 30 32 35 38 41 43 46 48 49 50 52 54
7 7 7 10 11 14 11 9 8 9 10 17 16 15 14 13 15 16 18 19 22 24 24 21 11 13 14 8 9 9 11 13 18 21 23 25 27 31 34 37 39 40 41 43 46 47 49 51 54
5 5 5 7 13 14 12 12 10 9 11 19 21 19 17 17 18 19 19 13 11 12 11 10 11 9 9 12 9 7 9 12 16 20 24 27 30 32 34 35 38 40 42 44 46 48 49 50 51
2 3 6 6 10 11 10 11 11 13 14 19 23 21 20 20 18 13 8 7 8 9 5 3 5 9 11 6 5 12 18 23 27 28 27 28 31 34 36 39 40 42 43 44 45 47 49 49 50
4 5 5 7 8 5 8 5 12 16 18 20 22 20 19 13 8 8 6 6 7 5 3 4 5 9 10 11 16 22 26 30 34 35 36 37 37 38 39 41 43 45 47 47 48 48 48 48 46
3 5 4 6 7 6 9 6 15 19 21 22 23 19 15 11 10 9 5 5 5 5 4 6 13 14 15 20 24 24 29 33 37 38 38 38 38 39 41 42 44 45 47 49 48 47 47 46 45
3 6 5 5 4 3 9 11 10 17 19 23 22 19 15 14 14 10 6 9 6 4 14 18 22 26 23 22 25 27 32 37 39 38 38 38 40 41 42 43 45 46 47 47 48 49 48 46 45
4 5 0 1 0 4 7 8 17 9 11 15 19 19 17 19 16 10 7 8 12 21 26 11 14 20 22 25 28 31 35 39 38 37 38 40 42 44 45 46 46 47 48 49 48 48 44 32 38
6 7 4 4 3 2 6 6 6 8 13 14 15 17 20 19 15 10 11 17 18 17 16 16 20 24 25 28 31 34 39 39 38 39 41 44 46 47 48 49 50 50 49 47 44 40 35 38 40
6 5 7 3 2 2 5 8 12 11 9 14 20 22 20 17 13 12 16 18 14 18 19 21 24 26 29 31 35 39 39 38 41 43 44 46 47 49 52 53 52 49 46 43 38 33 35 31 29
9 5 3 4 3 3 4 8 10 4 5 12 19 22 22 19 14 15 16 17 20 21 22 23 26 28 31 35 40 40 38 41 41 42 44 47 49 50 51 50 49 46 41 38 35 34 30 22 25
10 11 5 4 3 3 1 5 5 3 5 7 11 17 20 17 16 17 18 21 22 23 25 27 30 35 39 40 37 36 39 39 42 43 45 46 48 49 50 48 44 40 38 33 33 30 28 32 27
10 10 9 4 4 5 2 7 2 3 5 11 13 16 20 20 21 21 21 23 24 28 29 33 37 40 41 33 34 37 39 41 42 42 44 46 47 47 46 42 41 38 34 32 29 22 30 30 28